Location: Newark
(46.3567°N, 6.1428°E)
Time: 13:21:57
(UTC+00:00)

Oscar 11 - Visible Passes

Search period start: 23 September 2019 00:00
Search period end: 03 October 2019 00:00
Orbit: 613 x 625 km, 97.6° (Epoch: 22 September)

Date Brightness Start Highest point End Pass type
(mag) Time Alt. Az. Time Alt. Az. Time Alt. Az.
23 Sep 9.8 19:01:27 10° SW 19:04:42 21° W 19:07:58 10° NW visible
24 Sep 10.1 19:19:42 10° WSW 19:21:59 14° W 19:24:16 10° WNW visible
25 Sep 7.1 17:58:13 10° SSE 18:02:31 88° WSW 18:06:52 10° NNW visible
26 Sep 7.8 18:15:26 10° S 18:19:39 58° W 18:23:56 10° NNW visible
27 Sep 8.6 18:32:49 10° SSW 18:36:50 38° W 18:40:53 10° NNW visible
28 Sep 9.4 18:50:27 10° SSW 18:54:03 26° W 18:57:41 10° NW visible
29 Sep 10.0 19:08:24 10° SW 19:11:19 18° W 19:14:15 10° NW visible
30 Sep 7.0 17:47:41 10° SSE 17:51:58 74° ENE 17:56:18 10° N visible
30 Sep 10.3 19:27:02 10° WSW 19:28:37 12° W 19:30:13 10° WNW visible
01 Oct 7.3 18:04:47 10° S 18:09:04 74° WSW 18:13:25 10° NNW visible
02 Oct 8.1 18:22:03 10° S 18:26:14 48° W 18:30:26 10° NNW visible
